User: anonymous   Login
Location: Guayaquil
(2.1667°S, 79.9000°W)
Time: 09:07:24
(UTC-05:00)
Language:

NEE 01 PEGASUS - Orbit

View from above orbital plane
View from above orbital plane
View from above satellite
View from above satellite

Ground track
Ground track

The orbit data is extracted from the following two-line orbital elements,

1 39151U 13018B   18142.20295635  .00000137  00000-0  25150-4 0  9998
2 39151  97.9740 236.4529 0017861  37.0987 323.1455 14.79896690273672
Epoch (UTC): 22 May 2018 04:52:15
Eccentricity: 0.0017861
inclination: 97.9740°
perigee height: 617 km
apogee height: 642 km
right ascension of ascending node: 236.4529°
argument of perigee: 37.0987°
revolutions per day: 14.79896690
mean anomaly at epoch: 323.1455°
orbit number at epoch: 27367

The dashed part of the orbit path shows where the satellite is in the earth's shadow,  

DLR